Location: Unspecified
(41.5516°N, 88.1098°W)
Time: 20:47:37
(UTC-05:00)

Cosmos 1674 - Visible Passes

Search period start: 27 March 2015 00:00
Search period end: 06 April 2015 00:00
Orbit: 507 x 535 km, 82.5° (Epoch: 26 March)

Date Brightness Start Highest point End Pass type
(mag) Time Alt. Az. Time Alt. Az. Time Alt. Az.
27 Mar 2.7 20:33:44 10° N 20:37:29 56° E 20:39:11 29° SSE visible
28 Mar 2.9 20:20:28 10° N 20:24:11 48° E 20:26:53 17° SSE visible
28 Mar 5.9 21:58:36 10° WNW 21:59:38 11° W 22:00:28 10° W visible
29 Mar 3.1 20:07:13 10° N 20:10:52 41° ENE 20:14:31 10° SSE visible
29 Mar 5.8 21:44:36 10° WNW 21:46:22 13° W 21:47:58 10° WSW visible
30 Mar 3.3 19:53:59 10° N 19:57:31 35° ENE 20:01:05 10° SE visible
30 Mar 5.7 21:30:52 10° NW 21:33:05 15° W 21:35:11 10° WSW visible
31 Mar 3.6 19:40:46 10° NNE 19:44:10 30° ENE 19:47:37 10° SE visible
31 Mar 5.6 21:17:14 10° NW 21:19:49 17° W 21:22:16 10° SW visible
01 Apr 5.4 21:03:40 10° NW 21:06:31 20° W 21:09:17 10° SW visible
02 Apr 5.2 20:50:07 10° NW 20:53:13 23° W 20:56:13 10° SW visible
03 Apr 5.0 20:36:37 10° NNW 20:39:53 26° W 20:43:06 10° SSW visible
04 Apr 4.8 20:23:08 10° NNW 20:26:33 30° W 20:29:57 10° SSW visible
05 Apr 4.5 20:09:39 10° NNW 20:13:13 35° W 20:16:45 10° SSW visible
